This demonstration page uses our WeatherBlox Daily Observations layout. Learn more.

Left ArrowRight Arrow

41.12389, -100.76542

Hourly Observations for March 14, 2018

Temp ( °F °C ) Dew Point ( °F °C ) Humidity (%) Winds ( mph kmh ) Pressure ( in mb ) Visibility ( mi km ) Precip ( " mm )
12:53 am 00:53 Clear 36 2.2 18 -7.8 48 48 S 14 22 30.25 1025 10 16 0.00 0.00
1:53 am 01:53 Clear 36 2.2 16 -8.9 44 44 S 8 13 30.23 1024 10 16 0.00 0.00
2:53 am 02:53 Clear 34 1.1 16 -8.9 48 48 VRB 3 6 30.22 1023 10 16 0.00 0.00
3:53 am 03:53 Clear 35 1.7 16 -8.9 46 46 Calm 30.19 1022 10 16 0.00 0.00
4:53 am 04:53 Clear 36 2.2 17 -8.3 46 46 SSW 10 17 30.15 1021 10 16 0.00 0.00
5:53 am 05:53 Clear 35 1.7 16 -8.9 46 46 VRB 7 11 30.14 1021 10 16 0.00 0.00
6:53 am 06:53 Clear 26 -3.3 16 -8.9 66 66 WNW 5 7 30.14 1021 10 16 0.00 0.00
7:53 am 07:53 Clear 28 -2.2 17 -8.3 63 63 NW 3 6 30.14 1021 10 16 0.00 0.00
8:53 am 08:53 Sunny 33 0.6 21 -6.1 61 61 W 3 6 30.14 1021 10 16 0.00 0.00
9:53 am 09:53 Sunny 38 3.3 21 -6.1 51 51 W 5 7 30.13 1020 10 16 0.00 0.00
10:53 am 10:53 Sunny 45 7.2 25 -3.9 46 46 VRB 3 6 30.09 1019 10 16 0.00 0.00
11:53 am 11:53 Sunny 54 12.2 28 -2.2 37 37 WSW 9 15 30.04 1017 10 16 0.00 0.00
12:53 pm 12:53 Sunny 57 13.9 28 -2.2 33 33 VRB 6 9 30.00 1016 10 16 0.00 0.00
1:53 pm 13:53 Sunny 64 17.8 30 -1.1 28 28 S 8 13 29.95 1014 10 16 0.00 0.00
2:53 pm 14:53 Sunny 67 19.4 30 -1.1 25 25 S 7 11 29.91 1013 10 16 0.00 0.00
3:53 pm 15:53 Sunny 69 20.6 30 -1.1 23 23 S 12 19 29.87 1011 10 16 0.00 0.00
4:53 pm 16:53 Sunny 71 21.7 31 -0.6 23 23 S 9 15 29.83 1010 10 16 0.00 0.00
5:53 pm 17:53 Sunny 69 20.6 30 -1.1 23 23 S 9 15 29.82 1010 10 16 0.00 0.00
6:53 pm 18:53 Sunny 65 18.3 31 -0.6 28 28 S 8 13 29.84 1011 10 16 0.00 0.00
7:53 pm 19:53 Clear 56 13.3 30 -1.1 37 37 SSE 3 6 29.85 1011 10 16 0.00 0.00
8:53 pm 20:53 Clear 46 7.8 30 -1.1 54 54 ESE 9 15 29.84 1011 10 16 0.00 0.00
9:53 pm 21:53 Clear 43 6.1 29 -1.7 58 58 E 9 15 29.83 1010 10 16 0.00 0.00
10:53 pm 22:53 Clear 43 6.1 29 -1.7 58 58 E 7 11 29.82 1010 10 16 0.00 0.00
11:53 pm 23:53 Clear 39 3.9 28 -2.2 65 65 ESE 7 11 29.80 1009 10 16 0.00 0.00

Powered by AerisWeather